sat.trackr.live / text

‹ back to catalog

UNKNOWN

NORAD 87029

UNKNOWN UNKNOWN UNKNOWN

§ Identity

Operator
Country
Launch date
Launch site
Launch vehicle
Mass (kg)
RCS (m²)

External: N2YO · Heavens-Above

§ Orbital elements

Epoch: 2026-09-17T07:12:35.122464Z

Period
102.49 min
Inclination
98.7329°
Eccentricity
0.0081939
Mean motion
14.05032413 rev/d
Perigee alt
817.0 km
Apogee alt
935.9 km
Semi-major
7,254.6 km
B*
6.1350e-4
RAAN
290.4190°
Arg perigee
187.4301°
Mean anomaly
172.5659°
Rev number
63,211

§ Raw data

UNKNOWN1 87029U          26260.30040651  .00000976  00000+0  61350-3 0  99902 87029  98.7329 290.4190 0081939 187.4301 172.5659 14.05032413632116

JSON: /api/v1/satellites/87029 · /tle

For live sub-satellite position, see the globe view (requires WebGL).

§ Visibility from observer

Set your observer location to see the next 7 days of passes ≥ 10°. The values pass through the URL so the page stays shareable.

No JS? Fill the form by hand. The geolocation button needs JavaScript.